This demonstration page uses our WeatherBlox Daily Observations layout. Learn more.

Left ArrowRight Arrow

44.8408, -93.29828

Hourly Observations for April 18, 2019

Temp ( °F °C ) Dew Point ( °F °C ) Humidity (%) Winds ( mph kmh ) Pressure ( in mb ) Visibility ( mi km ) Precip ( " mm )
12:45 am 00:45 Cloudy 41 5 38 3.3 89 89 N 15 24 29.71 1006 10 16 0.00 0.00
12:53 am 00:53 Cloudy 41 5 38 3.3 89 89 N 15 24 29.69 1005 10 16 0.00 0.00
1:53 am 01:53 Cloudy 41 5 38 3.3 89 89 N 13 20 29.71 1006 10 16 0.00 0.00
2:53 am 02:53 Cloudy 41 5 37 2.8 86 86 N 18 30 29.70 1006 10 16 0.00 0.00
3:53 am 03:53 Cloudy 41 5 37 2.8 86 86 N 15 24 29.72 1006 10 16 0.00 0.00
4:53 am 04:53 Cloudy 41 5 37 2.8 86 86 N 14 22 29.73 1007 10 16 0.00 0.00
5:53 am 05:53 Cloudy 42 5.6 37 2.8 82 82 NNW 9 15 29.76 1008 10 16 0.00 0.00
6:53 am 06:53 Cloudy 42 5.6 37 2.8 82 82 N 13 20 29.79 1009 10 16 0.00 0.00
7:53 am 07:53 Mostly Cloudy 43 6.1 37 2.8 80 80 NNW 15 24 29.77 1008 10 16 0.00 0.00
8:13 am 08:13 Mostly Cloudy 43 6.1 36 2.2 76 76 N 14 22 29.77 1008 10 16 0.00 0.00
8:53 am 08:53 Cloudy 42 5.6 35 1.7 76 76 N 14 22 29.80 1009 10 16 0.00 0.00
9:53 am 09:53 Cloudy 44 6.7 35 1.7 71 71 N 13 20 29.83 1010 10 16 0.00 0.00
10:53 am 10:53 Cloudy 46 7.8 36 2.2 68 68 N 12 19 29.85 1011 10 16 0.00 0.00
11:53 am 11:53 Cloudy 49 9.4 37 2.8 64 64 N 14 22 29.86 1011 10 16 0.00 0.00
12:33 pm 12:33 Mostly Cloudy 49 9.4 37 2.8 64 64 NNW 13 20 29.86 1011 10 16 0.00 0.00
12:53 pm 12:53 Mostly Cloudy 50 10 37 2.8 61 61 N 14 22 29.87 1011 10 16 0.00 0.00
1:11 pm 13:11 Mostly Cloudy 50 10 37 2.8 61 61 N 12 19 29.87 1012 10 16 0.00 0.00
1:53 pm 13:53 Mostly Cloudy 52 11.1 37 2.8 57 57 N 14 22 29.86 1011 10 16 0.00 0.00
2:53 pm 14:53 Mostly Cloudy 51 10.6 36 2.2 56 56 NNW 14 22 29.88 1012 10 16 0.00 0.00
3:53 pm 15:53 Cloudy 52 11.1 38 3.3 59 59 NNW 10 17 29.88 1012 10 16 0.00 0.00
4:53 pm 16:53 Mostly Cloudy 52 11.1 37 2.8 57 57 NNW 13 20 29.88 1012 10 16 0.00 0.03
5:53 pm 17:53 Mostly Cloudy 52 11.1 38 3.3 59 59 N 10 17 29.90 1013 10 16 0.00 0.00
6:53 pm 18:53 Partly Cloudy 51 10.6 36 2.2 56 56 NNE 9 15 29.93 1014 10 16 0.00 0.00
7:53 pm 19:53 Mostly Sunny 50 10 36 2.2 59 59 N 8 13 29.95 1014 10 16 0.00 0.00
8:53 pm 20:53 Partly Cloudy 49 9.4 36 2.2 61 61 NE 5 7 29.99 1016 10 16 0.00 0.00
9:53 pm 21:53 Mostly Clear 48 8.9 36 2.2 63 63 Calm 30.01 1016 10 16 0.00 0.00
10:53 pm 22:53 Mostly Clear 44 6.7 37 2.8 76 76 NNW 5 7 30.01 1016 10 16 0.00 0.00
11:53 pm 23:53 Clear 42 5.6 36 2.2 79 79 NW 7 11 30.00 1016 10 16 0.00 0.00

Powered by AerisWeather